FENGYUN 2G

Last updated on Mon Jun 22 2026 00:02:46 GMT+0000 (Coordinated Universal Time)

1 40367U 14090A 26172.16642169 -.00000306 00000+0 00000+0 0 9995 2 40367 5.6502 72.7719 0003712 157.9383 198.2472 1.00270539 42031
UTC large
Height (km)
Speed (km/s)
/
Latitude / Longitude
Inclination (degrees)
Orbital Period (minutes)
Azimuth
Elevation
Range (km)
Doppler Factor

Next 0 passes for location: London (51.5072 / 0.1276)

No passes found over London.
FENGYUN 2G